This demonstration page uses our WeatherBlox Daily Observations layout. Learn more.

Hourly Observations for December 5, 2017

Temp ( °F °C ) Dew Point ( °F °C ) Humidity (%) Winds ( mph kmh ) Pressure ( in mb ) Visibility ( mi km ) Precip ( " mm )
12:54 am 00:54 Clear 27 -2.8 11 -11.7 51 51 WNW 13 20 30.16 1022 10 16.0934 0 0
1:54 am 01:54 Clear 27 -2.8 10 -12.2 49 49 WNW 10 17 30.16 1022 10 16.0934 0 0
2:54 am 02:54 Clear 25 -3.9 9 -12.8 50 50 W 12 19 30.18 1022 10 16.0934 0 0
3:54 am 03:54 Clear 25 -3.9 9 -12.8 50 50 W 15 24 30.16 1021 10 16.0934 0 0
4:54 am 04:54 Clear 24 -4.4 8 -13.3 50 50 W 13 20 30.16 1022 10 16.0934 0 0
5:54 am 05:54 Clear 25 -3.9 8 -13.3 48 48 W 17 28 30.18 1022 10 16.0934 0 0
6:54 am 06:54 Clear 25 -3.9 9 -12.8 50 50 W 13 20 30.2 1023 10 16.0934 0 0
7:54 am 07:54 Sunny 26 -3.3 10 -12.2 51 51 W 15 24 30.22 1023 10 16.0934 0 0
8:54 am 08:54 Sunny 29 -1.7 11 -11.7 47 47 W 16 26 30.24 1024 10 16.0934 0 0
9:54 am 09:54 Sunny 33 0.6 12 -11.1 42 42 W 18 30 30.25 1024 10 16.0934 0 0
10:54 am 10:54 Sunny 38 3.3 13 -10.6 36 36 W 20 31 30.24 1024 10 16.0934 0 0
11:54 am 11:54 Sunny 41 5 14 -10 33 33 WNW 21 33 30.2 1023 10 16.0934 0 0
12:54 pm 12:54 Sunny 44 6.7 15 -9.4 31 31 WNW 21 33 30.16 1022 10 16.0934 0 0
1:54 pm 13:54 Sunny 45 7.2 15 -9.4 30 30 NW 20 31 30.14 1021 10 16.0934 0 0
2:54 pm 14:54 Sunny 46 7.8 15 -9.4 29 29 WNW 16 26 30.14 1021 10 16.0934 0 0
3:54 pm 15:54 Sunny 46 7.8 16 -8.9 30 30 WNW 20 31 30.14 1021 10 16.0934 0 0
4:54 pm 16:54 Mostly Cloudy 45 7.2 15 -9.4 30 30 W 12 19 30.13 1020 10 16.0934 0 0
5:54 pm 17:54 Cloudy 44 6.7 14 -10 30 30 WSW 10 17 30.12 1020 10 16.0934 0 0
6:54 pm 18:54 Cloudy 43 6.1 13 -10.6 29 29 WSW 10 17 30.11 1020 10 16.0934 0 0
7:54 pm 19:54 Cloudy 44 6.7 15 -9.4 31 31 W 13 20 30.12 1020 10 16.0934 0 0
8:54 pm 20:54 Cloudy 43 6.1 18 -7.8 37 37 W 10 17 30.12 1020 10 16.0934 0 0
9:54 pm 21:54 Cloudy 42 5.6 18 -7.8 38 38 W 8 13 30.12 1020 10 16.0934 0 0
10:54 pm 22:54 Cloudy 43 6.1 20 -6.7 40 40 WNW 16 26 30.13 1020 10 16.0934 0 0
11:54 pm 23:54 Clear 42 5.6 25 -3.9 51 51 NW 20 31 30.16 1021 10 16.0934 0 0

Powered by AerisWeather